Back to catalog

STARLINK-4202

AliveCommunicationsVLEO
NORAD 52848·PAYLOAD·🇺🇸 United States

Launched Jun 17, 2022 from Cape Canaveral Space Force Station

Loading…

Next Passes (next 24 hours)

TLE

FreshSource: CelesTrak SupGP

Epoch: Sep 14, 2026, 13:51 UTC

1 52848C 22062U   26257.57756944 -.00017580  00000+0 -50293-3 0  2579
2 52848  53.1569 257.7004 0001300  79.2691 324.2536 15.35409397    13

Track STARLINK-4202 in real time with AllMySat

Download on the App Store